Current Weather Conditions: station 62120

sailwx.info

Wind from 250 at 14 knots

Air temperature 5.0° C
Visibility: greater than 27.0 NM
Dewpoint 0.1° C

Last reported at 2020-Feb-26 14:00 UTC.
Time now 2020-Feb-26 15:32 UTC

Location: N 56°24' E 002°06'.
View on Google Maps.

See reports from other nearby stations

  
Tides and Currents Weather Stations Pressure Air Temp Water Temp Dewpoint Dewpoint Depression Visibility Wind Speed Wind Dir Waves Ship Positions
date/time (UTC)wind fromknots sea level pressurealtimeterstation pressurevisibilityair tempwater tempwave heightnotes
2020-Feb-26 14:00 250 14 27.0 5.0
2020-Feb-26 13:00 270 14 27.0 4.8
2020-Feb-26 12:00 280 6 27.0 3.5
2020-Feb-26 11:00 280 13 27.0 3.1
2020-Feb-26 10:00 290 8 2.2 2.6
2020-Feb-26 09:00 300 11 27.0 3.7
2020-Feb-26 08:00 310 2 27.0 3.1
2020-Feb-26 07:00 280 6 27.0 4.3
2020-Feb-26 06:00 280 6 27.0 4.1
2020-Feb-26 05:00 280 7 27.0 4.0
2020-Feb-26 04:00 290 6 27.0 3.6
2020-Feb-26 03:00 300 7 27.0 3.7
2020-Feb-26 02:00 270 9 27.0 3.7
2020-Feb-26 01:00 290 6 27.0 3.7
2020-Feb-26 00:00 300 8 27.0 3.6
2020-Feb-25 23:00 270 8 27.0 3.9
2020-Feb-25 22:00 290 7 27.0 4.1
2020-Feb-25 21:00 280 6 27.0 3.9
2020-Feb-25 20:00 280 7 27.0 3.7
2020-Feb-25 19:00 250 6 10.8 3.9
2020-Feb-25 18:00 270 2 27.0 3.8
2020-Feb-25 17:00 240 6 27.0 3.7
2020-Feb-25 16:00 250 5 27.0 3.9
2020-Feb-25 15:00 240 5 10.8 4.4
2020-Feb-25 14:00 250 5 27.0 4.4
2020-Feb-25 13:00 260 4 27.0 4.2
2020-Feb-25 12:00 250 4 27.0 2.9
2020-Feb-25 11:00 300 5 27.0 4.0
2020-Feb-25 10:00 300 6 27.0 3.7
2020-Feb-25 09:00 010 7 10.8 3.9
2020-Feb-25 08:00 020 11 27.0 3.9
2020-Feb-25 07:00 320 13 2.2 3.1
2020-Feb-25 06:00 350 14 5.4 3.3
2020-Feb-25 05:00 360 20 5.4 3.5
2020-Feb-25 04:00 340 20 5.4 3.3
2020-Feb-25 03:00 320 20 5.4 3.1
2020-Feb-25 02:00 300 25 2.2 3.3
2020-Feb-25 01:00 020 24 2.2 3.5
2020-Feb-25 00:00 030 25 10.8 3.7
2020-Feb-24 23:00 040 20 10.8 4.3
2020-Feb-24 22:00 340 4 2.2 5.5
2020-Feb-24 21:00 250 5 1.1 5.4
2020-Feb-24 20:00 070 20 2.2 4.2
2020-Feb-24 19:00 060 26 2.2 3.7
2020-Feb-24 18:00 070 27 2.2 3.4
2020-Feb-24 17:00 090 27 2.2 2.9
2020-Feb-24 16:00 080 27 5.4 3.0
2020-Feb-24 15:00 070 25 10.8 3.5